Flag for New Zealand Weather past 2 weeks in Auckland, New Zealand

55 °F


Feels Like: 52 °F
Forecast: 54 / 60 °F
Wind: 14 mph from Southwest

Location: Auckland Airport

Current Time: Oct 11, 2015 at 2:25:56 AM

Latest Report: Oct 11, 2015 at 2:00 AM

Visibility: N/A

Pressure: 30.18 "Hg

Humidity: 67%

Dew point: 45 °F

Location of AucklandLocation

Historic Weather in Auckland — Graph


Auckland temperature yesterday

Maximum temperature yesterday: 61 °F (at 12:30 PM)
Minimum temperature yesterday: 50 °F (at 5:30 AM)
Average temperature yesterday: 55 °F

Past Weeks' High & Low Weather Summary

High66 °F (Oct 1, 1:30 PM)100% (Sep 28, 8:00 AM)30.48 "Hg (Sep 28, 8:00 AM)
Low45 °F (Sep 27, 5:30 AM)34% (Oct 9, 12:30 PM)29.83 "Hg (Oct 3, 3:30 AM)
Average56 °F77%30.21 "Hg
* Reported Midnight between Sep 25 and Sep 26 — Oct 11 1:00 AM, Auckland, Weather by CustomWeather, © 2015

Note: Actual official high and low records may vary slightly from our data, if they occured in-between our weather recording intervals... More about our weather records


Auckland weather history for previous 24 hours

Time TempWeatherWind HumidityBarometerVisibility
1:00 AM
Sun, Oct 11
55 °FOvercast.15 mph72%30.18 "HgN/A
12:30 AM55 °FPassing clouds.14 mph82%30.21 "HgN/A
12:00 AM55 °FScattered showers. Mostly cloudy.15 mph77%30.21 "HgN/A
11:30 PM
Sat, Oct 10
55 °FScattered showers. Overcast.16 mph77%30.21 "HgN/A
11:00 PM55 °FOvercast.14 mph72%30.21 "HgN/A
10:30 PM55 °FOvercast.16 mph72%30.21 "HgN/A
10:00 PM55 °FPassing clouds.15 mph77%30.21 "HgN/A
9:30 PM55 °FOvercast.16 mph77%30.21 "HgN/A
9:00 PM55 °FPassing clouds.16 mph72%30.21 "HgN/A
8:30 PM55 °FOvercast.15 mph72%30.21 "HgN/A
8:00 PM55 °FOvercast.15 mph72%30.21 "HgN/A
7:30 PM55 °FPartly sunny.17 mph77%30.18 "HgN/A
7:00 PM54 °FSprinkles. Mostly cloudy.15 mph88%30.18 "Hg6 mi
6:30 PM55 °FPartly sunny.12 mph72%30.18 "HgN/A
6:00 PM55 °FSprinkles. Partly sunny.15 mph82%30.18 "HgN/A
5:30 PM57 °FOvercast.16 mph67%30.18 "HgN/A
5:00 PM59 °FOvercast.16 mph68%30.18 "HgN/A
4:30 PM55 °FMostly cloudy.18 mph82%30.21 "HgN/A
4:00 PM59 °FOvercast.17 mph68%30.21 "HgN/A
3:30 PM57 °FMore clouds than sun.18 mph77%30.21 "HgN/A
3:00 PM59 °FPartly sunny.15 mph68%30.21 "HgN/A
2:30 PM59 °FPartly sunny.16 mph63%30.21 "HgN/A
2:00 PM59 °FPartly sunny.17 mph68%30.21 "HgN/A
1:30 PM59 °FPartly sunny.16 mph68%30.24 "HgN/A
1:00 PM59 °FPartly sunny.15 mph72%30.24 "HgN/A
12:30 PM61 °FPartly sunny.14 mph68%30.24 "HgN/A
12:00 PM55 °FDrizzle. Broken clouds.16 mph82%30.24 "HgN/A
11:30 AM57 °FPartly sunny.9 mph77%30.24 "HgN/A
11:00 AM57 °FBroken clouds.9 mph77%30.24 "HgN/A
10:00 AM57 °FPartly sunny.14 mph82%30.24 "HgN/A
9:30 AM57 °FPartly sunny.12 mph77%30.24 "HgN/A
9:00 AM54 °FScattered clouds.9 mph88%30.24 "Hg5 mi
8:30 AM54 °FPartly sunny.5 mph88%30.24 "HgN/A
8:00 AM52 °FSprinkles. More clouds than sun.7 mph94%30.24 "HgN/A
7:30 AM50 °FScattered clouds.5 mph94%30.24 "HgN/A
7:00 AM50 °FPartly sunny.5 mph94%30.24 "HgN/A
6:30 AM52 °FSprinkles. Mostly cloudy.5 mph94%30.24 "Hg4 mi
6:00 AM52 °FDrizzle. Mostly cloudy.9 mph88%30.24 "HgN/A
5:30 AM50 °FPassing clouds.6 mph94%30.24 "HgN/A
5:00 AM52 °FPassing clouds.7 mph82%30.24 "HgN/A
4:30 AM54 °FMostly cloudy.9 mph77%30.24 "HgN/A
3:30 AM54 °FPartly cloudy.9 mph82%30.24 "HgN/A
3:00 AM54 °FPassing clouds.7 mph77%30.27 "HgN/A
2:30 AM54 °FPassing clouds.7 mph77%30.27 "HgN/A
2:00 AM54 °FOvercast.5 mph77%30.27 "HgN/A
Weather by CustomWeather, © 2015

See weather overviewHow to use our weather pages